Time,TemperatureF,DewpointF,PressureIn,WindDirection,WindDirectionDegrees,WindSpeedMPH,WindSpeedGustMPH,Humidity,HourlyPrecipIn,Conditions,Clouds,dailyrainin,SoftwareType,DateUTC
2013-02-27 00:00:00,63.4,55.7,29.60,WSW,253,8.0,11.0,76,0.00,,,0.00,Wunderground v.1.15,2013-02-27 05:00:00,
2013-02-27 00:04:00,63.2,55.5,29.60,West,260,9.0,11.0,76,0.00,,,0.00,Wunderground v.1.15,2013-02-27 05:04:00,
2013-02-27 00:10:00,63.1,55.8,29.60,WSW,251,8.0,8.0,77,0.00,,,0.00,Wunderground v.1.15,2013-02-27 05:10:00,
2013-02-27 00:16:00,62.9,55.6,29.60,West,268,7.0,8.0,77,0.00,,,0.00,Wunderground v.1.15,2013-02-27 05:16:00,
2013-02-27 00:22:00,62.9,55.9,29.60,SW,233,9.0,11.0,78,0.00,,,0.00,Wunderground v.1.15,2013-02-27 05:22:00,
2013-02-27 00:28:00,62.7,55.7,29.60,West,272,10.0,14.0,78,0.00,,,0.00,Wunderground v.1.15,2013-02-27 05:28:00,
2013-02-27 00:34:00,62.4,55.8,29.62,SW,236,8.0,16.0,79,0.00,,,0.00,Wunderground v.1.15,2013-02-27 05:34:00,
2013-02-27 00:36:00,62.4,55.8,29.62,West,268,8.0,16.0,79,0.00,,,0.00,Wunderground v.1.15,2013-02-27 05:36:00,
2013-02-27 00:42:00,62.1,55.9,29.62,WSW,253,7.0,10.0,80,0.00,,,0.00,Wunderground v.1.15,2013-02-27 05:42:00,
2013-02-27 00:48:00,61.8,55.9,29.62,West,270,7.0,10.0,81,0.00,,,0.00,Wunderground v.1.15,2013-02-27 05:48:00,
2013-02-27 00:54:00,61.6,56.0,29.62,West,274,6.0,7.0,82,0.00,,,0.00,Wunderground v.1.15,2013-02-27 05:54:00,
2013-02-27 01:00:00,61.3,56.1,29.62,West,261,5.0,5.0,83,0.00,,,0.00,Wunderground v.1.15,2013-02-27 06:00:00,
2013-02-27 01:06:00,61.2,56.0,29.62,WSW,257,5.0,7.0,83,0.00,,,0.00,Wunderground v.1.15,2013-02-27 06:06:00,
2013-02-27 01:12:00,60.7,55.8,29.62,WSW,256,5.0,5.0,84,0.00,,,0.00,Wunderground v.1.15,2013-02-27 06:12:00,
2013-02-27 01:18:00,60.7,56.2,29.62,SW,234,4.0,7.0,85,0.00,,,0.00,Wunderground v.1.15,2013-02-27 06:18:00,
2013-02-27 01:24:00,60.4,56.2,29.62,SW,236,5.0,8.0,86,0.00,,,0.00,Wunderground v.1.15,2013-02-27 06:24:00,
2013-02-27 01:30:00,60.4,56.2,29.63,WNW,282,6.0,6.0,86,0.00,,,0.00,Wunderground v.1.15,2013-02-27 06:30:00,
2013-02-27 01:36:00,60.2,56.0,29.63,West,274,6.0,7.0,86,0.00,,,0.00,Wunderground v.1.15,2013-02-27 06:36:00,
2013-02-27 01:42:00,60.2,56.0,29.63,West,275,7.0,7.0,86,0.00,,,0.00,Wunderground v.1.15,2013-02-27 06:42:00,
2013-02-27 01:48:00,60.1,55.9,29.63,West,264,6.0,7.0,86,0.00,,,0.00,Wunderground v.1.15,2013-02-27 06:48:00,
2013-02-27 01:54:00,59.9,56.0,29.63,NW,308,5.0,8.0,87,0.00,,,0.00,Wunderground v.1.15,2013-02-27 06:54:00,
2013-02-27 02:00:00,58.9,56.6,29.65,NNW,333,11.0,25.0,92,0.00,,,0.00,Wunderground v.1.15,2013-02-27 07:00:00,
2013-02-27 02:06:00,57.3,56.2,29.65,NW,325,24.0,30.0,96,0.00,,,0.00,Wunderground v.1.15,2013-02-27 07:06:00,
2013-02-27 02:12:00,56.9,56.3,29.65,NW,325,25.0,25.0,98,0.00,,,0.00,Wunderground v.1.15,2013-02-27 07:12:00,
2013-02-27 02:18:00,56.7,56.1,29.65,NW,318,20.0,25.0,98,0.00,,,0.00,Wunderground v.1.15,2013-02-27 07:18:00,
2013-02-27 02:24:00,56.5,55.4,29.65,NW,316,19.0,27.0,96,0.00,,,0.00,Wunderground v.1.15,2013-02-27 07:24:00,
2013-02-27 02:30:00,56.3,55.2,29.67,NW,309,23.0,24.0,96,0.00,,,0.00,Wunderground v.1.15,2013-02-27 07:30:00,
2013-02-27 02:36:00,55.9,54.5,29.67,NW,322,24.0,27.0,95,0.00,,,0.00,Wunderground v.1.15,2013-02-27 07:36:00,
2013-02-27 02:42:00,55.9,54.5,29.67,NW,316,22.0,23.0,95,0.00,,,0.00,Wunderground v.1.15,2013-02-27 07:42:00,
2013-02-27 02:48:00,55.7,54.6,29.67,NW,305,19.0,23.0,96,0.00,,,0.00,Wunderground v.1.15,2013-02-27 07:48:00,
2013-02-27 02:54:00,55.4,54.3,29.67,NW,316,20.0,21.0,96,0.00,,,0.00,Wunderground v.1.15,2013-02-27 07:54:00,
2013-02-27 03:00:00,55.3,53.9,29.67,NW,305,22.0,22.0,95,0.00,,,0.00,Wunderground v.1.15,2013-02-27 08:00:00,
2013-02-27 03:06:00,55.1,53.7,29.67,NW,306,21.0,22.0,95,0.00,,,0.00,Wunderground v.1.15,2013-02-27 08:06:00,
2013-02-27 03:12:00,55.0,53.3,29.67,WNW,302,20.0,24.0,94,0.00,,,0.00,Wunderground v.1.15,2013-02-27 08:12:00,
2013-02-27 03:18:00,54.8,52.5,29.68,NW,305,21.0,25.0,92,0.00,,,0.00,Wunderground v.1.15,2013-02-27 08:18:00,
2013-02-27 03:24:00,54.2,51.3,29.68,NW,312,22.0,28.0,90,0.00,,,0.00,Wunderground v.1.15,2013-02-27 08:24:00,
2013-02-27 03:30:00,54.1,51.2,29.68,NW,313,24.0,24.0,90,0.00,,,0.00,Wunderground v.1.15,2013-02-27 08:30:00,
2013-02-27 03:36:00,53.9,51.3,29.68,NW,309,21.0,24.0,91,0.00,,,0.00,Wunderground v.1.15,2013-02-27 08:36:00,
2013-02-27 03:42:00,53.6,51.0,29.68,NW,313,19.0,21.0,91,0.00,,,0.00,Wunderground v.1.15,2013-02-27 08:42:00,
2013-02-27 03:48:00,53.6,50.7,29.68,NW,309,20.0,21.0,90,0.00,,,0.00,Wunderground v.1.15,2013-02-27 08:48:00,
2013-02-27 03:54:00,53.5,50.9,29.68,NW,313,20.0,20.0,91,0.00,,,0.00,Wunderground v.1.15,2013-02-27 08:54:00,
2013-02-27 04:00:00,53.5,51.2,29.70,NW,315,19.0,19.0,92,0.00,,,0.00,Wunderground v.1.15,2013-02-27 09:00:00,
2013-02-27 04:06:00,53.2,50.3,29.70,NW,304,19.0,24.0,90,0.00,,,0.00,Wunderground v.1.15,2013-02-27 09:06:00,
2013-02-27 04:12:00,52.9,50.3,29.70,NW,313,19.0,20.0,91,0.00,,,0.00,Wunderground v.1.15,2013-02-27 09:12:00,
2013-02-27 04:18:00,52.9,49.7,29.70,NW,304,19.0,24.0,89,0.00,,,0.00,Wunderground v.1.15,2013-02-27 09:18:00,
2013-02-27 04:24:00,52.9,50.0,29.70,NW,311,21.0,22.0,90,0.00,,,0.00,Wunderground v.1.15,2013-02-27 09:24:00,
2013-02-27 04:30:00,52.9,49.4,29.71,NW,305,21.0,22.0,88,0.00,,,0.00,Wunderground v.1.15,2013-02-27 09:30:00,
2013-02-27 04:36:00,52.6,48.8,29.71,NW,322,22.0,22.0,87,0.00,,,0.00,Wunderground v.1.15,2013-02-27 09:36:00,
2013-02-27 04:42:00,52.8,49.0,29.71,NW,305,22.0,22.0,87,0.00,,,0.00,Wunderground v.1.15,2013-02-27 09:42:00,
2013-02-27 04:48:00,52.5,48.7,29.71,NW,311,22.0,22.0,87,0.00,,,0.00,Wunderground v.1.15,2013-02-27 09:48:00,
2013-02-27 04:54:00,52.3,48.5,29.71,NW,306,20.0,21.0,87,0.00,,,0.00,Wunderground v.1.15,2013-02-27 09:54:00,
2013-02-27 05:00:00,52.0,48.3,29.72,NW,305,17.0,17.0,87,0.00,,,0.00,Wunderground v.1.15,2013-02-27 10:00:00,
2013-02-27 05:06:00,52.0,48.9,29.72,NW,316,16.0,17.0,89,0.00,,,0.00,Wunderground v.1.15,2013-02-27 10:06:00,
2013-02-27 05:12:00,52.0,48.9,29.72,NW,308,17.0,19.0,89,0.00,,,0.00,Wunderground v.1.15,2013-02-27 10:12:00,
2013-02-27 05:18:00,51.7,48.3,29.73,NW,312,16.0,19.0,88,0.00,,,0.00,Wunderground v.1.15,2013-02-27 10:18:00,
2013-02-27 05:24:00,51.3,48.2,29.73,WNW,289,12.0,15.0,89,0.00,,,0.00,Wunderground v.1.15,2013-02-27 10:24:00,
2013-02-27 05:30:00,51.1,47.1,29.73,West,281,11.0,11.0,86,0.00,,,0.00,Wunderground v.1.15,2013-02-27 10:30:00,
2013-02-27 05:36:00,51.3,46.6,29.73,West,268,12.0,16.0,84,0.00,,,0.00,Wunderground v.1.15,2013-02-27 10:36:00,
2013-02-27 05:42:00,51.0,45.7,29.73,West,281,11.0,11.0,82,0.00,,,0.00,Wunderground v.1.15,2013-02-27 10:42:00,
2013-02-27 05:48:00,50.8,45.5,29.73,WNW,282,7.0,11.0,82,0.00,,,0.00,Wunderground v.1.15,2013-02-27 10:48:00,
2013-02-27 05:54:00,50.5,45.2,29.73,WNW,284,4.0,6.0,82,0.00,,,0.00,Wunderground v.1.15,2013-02-27 10:54:00,
2013-02-27 06:00:00,50.5,45.2,29.73,NW,315,5.0,12.0,82,0.00,,,0.00,Wunderground v.1.15,2013-02-27 11:00:00,
2013-02-27 06:06:00,50.7,45.1,29.73,WNW,294,10.0,16.0,81,0.00,,,0.00,Wunderground v.1.15,2013-02-27 11:06:00,
2013-02-27 06:12:00,50.5,44.6,29.73,WNW,298,10.0,11.0,80,0.00,,,0.00,Wunderground v.1.15,2013-02-27 11:12:00,
2013-02-27 06:18:00,50.4,44.8,29.75,WNW,292,6.0,11.0,81,0.00,,,0.00,Wunderground v.1.15,2013-02-27 11:18:00,
2013-02-27 06:24:00,50.4,44.8,29.75,WNW,299,4.0,6.0,81,0.00,,,0.00,Wunderground v.1.15,2013-02-27 11:24:00,
2013-02-27 06:30:00,50.2,44.6,29.74,WNW,291,4.0,5.0,81,0.00,,,0.00,Wunderground v.1.15,2013-02-27 11:30:00,
2013-02-27 06:36:00,50.1,44.5,29.74,West,281,3.0,5.0,81,0.00,,,0.00,Wunderground v.1.15,2013-02-27 11:36:00,
2013-02-27 06:42:00,50.1,44.8,29.74,West,260,4.0,6.0,82,0.00,,,0.00,Wunderground v.1.15,2013-02-27 11:42:00,
2013-02-27 06:48:00,50.1,44.5,29.75,WNW,291,6.0,11.0,81,0.00,,,0.00,Wunderground v.1.15,2013-02-27 11:48:00,
2013-02-27 06:54:00,50.1,44.5,29.75,WNW,302,8.0,11.0,81,0.00,,,0.00,Wunderground v.1.15,2013-02-27 11:54:00,
2013-02-27 07:00:00,50.4,45.1,29.75,WNW,292,11.0,19.0,82,0.00,,,0.00,Wunderground v.1.15,2013-02-27 12:00:00,
2013-02-27 07:06:00,50.4,44.8,29.75,NW,319,14.0,19.0,81,0.00,,,0.00,Wunderground v.1.15,2013-02-27 12:06:00,
2013-02-27 07:12:00,50.5,45.2,29.75,WNW,289,12.0,13.0,82,0.00,,,0.00,Wunderground v.1.15,2013-02-27 12:12:00,
2013-02-27 07:18:00,50.4,45.1,29.75,WNW,296,12.0,13.0,82,0.00,,,0.00,Wunderground v.1.15,2013-02-27 12:18:00,
2013-02-27 07:24:00,50.7,45.7,29.75,WNW,288,12.0,13.0,83,0.00,,,0.00,Wunderground v.1.15,2013-02-27 12:24:00,
2013-02-27 07:30:00,50.8,45.5,29.76,WNW,298,15.0,20.0,82,0.00,,,0.00,Wunderground v.1.15,2013-02-27 12:30:00,
2013-02-27 07:36:00,50.8,45.8,29.76,NW,313,18.0,20.0,83,0.00,,,0.00,Wunderground v.1.15,2013-02-27 12:36:00,
2013-02-27 07:42:00,50.8,46.1,29.76,WNW,299,17.0,17.0,84,0.00,,,0.00,Wunderground v.1.15,2013-02-27 12:42:00,
2013-02-27 07:48:00,50.8,45.8,29.76,WNW,302,16.0,21.0,83,0.00,,,0.00,Wunderground v.1.15,2013-02-27 12:48:00,
2013-02-27 07:54:00,50.7,44.4,29.76,NW,315,17.0,20.0,79,0.00,,,0.00,Wunderground v.1.15,2013-02-27 12:54:00,
2013-02-27 08:00:00,50.5,44.2,29.77,WNW,299,19.0,19.0,79,0.00,,,0.00,Wunderground v.1.15,2013-02-27 13:00:00,
2013-02-27 08:06:00,50.7,44.8,29.77,WNW,301,20.0,24.0,80,0.00,,,0.00,Wunderground v.1.15,2013-02-27 13:06:00,
2013-02-27 08:12:00,50.7,44.8,29.77,WNW,296,18.0,20.0,80,0.00,,,0.00,Wunderground v.1.15,2013-02-27 13:12:00,
2013-02-27 08:18:00,50.5,44.2,29.78,WNW,288,18.0,20.0,79,0.00,,,0.00,Wunderground v.1.15,2013-02-27 13:18:00,
2013-02-27 08:24:00,50.5,43.9,29.78,NW,304,17.0,20.0,78,0.00,,,0.00,Wunderground v.1.15,2013-02-27 13:24:00,
2013-02-27 08:30:00,50.8,44.5,29.79,NW,313,19.0,19.0,79,0.00,,,0.00,Wunderground v.1.15,2013-02-27 13:30:00,
2013-02-27 08:36:00,51.1,45.1,29.79,West,267,15.0,20.0,80,0.00,,,0.00,Wunderground v.1.15,2013-02-27 13:36:00,
2013-02-27 08:42:00,51.0,45.0,29.79,WNW,298,9.0,12.0,80,0.00,,,0.00,Wunderground v.1.15,2013-02-27 13:42:00,
2013-02-27 08:48:00,50.8,45.2,29.79,WNW,291,11.0,13.0,81,0.00,,,0.00,Wunderground v.1.15,2013-02-27 13:48:00,
2013-02-27 08:54:00,50.8,44.9,29.79,WNW,289,13.0,14.0,80,0.00,,,0.00,Wunderground v.1.15,2013-02-27 13:54:00,
2013-02-27 09:00:00,51.0,45.0,29.80,WNW,295,14.0,16.0,80,0.00,,,0.00,Wunderground v.1.15,2013-02-27 14:00:00,
2013-02-27 09:06:00,51.1,44.8,29.80,WNW,299,15.0,20.0,79,0.00,,,0.00,Wunderground v.1.15,2013-02-27 14:06:00,
2013-02-27 09:12:00,50.8,43.5,29.80,WNW,301,17.0,21.0,76,0.00,,,0.00,Wunderground v.1.15,2013-02-27 14:12:00,
2013-02-27 09:18:00,51.0,45.0,29.81,WNW,295,19.0,22.0,80,0.00,,,0.00,Wunderground v.1.15,2013-02-27 14:18:00,
2013-02-27 09:24:00,51.0,44.0,29.81,NW,313,21.0,26.0,77,0.00,,,0.00,Wunderground v.1.15,2013-02-27 14:24:00,
2013-02-27 09:30:00,50.8,43.5,29.80,WNW,298,23.0,24.0,76,0.00,,,0.00,Wunderground v.1.15,2013-02-27 14:30:00,
2013-02-27 09:36:00,51.0,44.0,29.80,NW,315,21.0,24.0,77,0.00,,,0.00,Wunderground v.1.15,2013-02-27 14:36:00,
2013-02-27 09:42:00,51.1,44.5,29.80,WNW,294,20.0,21.0,78,0.00,,,0.00,Wunderground v.1.15,2013-02-27 14:42:00,
2013-02-27 09:48:00,51.0,43.0,29.80,WNW,287,21.0,21.0,74,0.00,,,0.00,Wunderground v.1.15,2013-02-27 14:48:00,
2013-02-27 09:54:00,51.1,43.8,29.80,NW,316,21.0,22.0,76,0.00,,,0.00,Wunderground v.1.15,2013-02-27 14:54:00,
2013-02-27 10:00:00,50.8,42.8,29.80,WNW,296,21.0,21.0,74,0.00,,,0.00,Wunderground v.1.15,2013-02-27 15:00:00,
2013-02-27 10:06:00,51.1,43.4,29.80,NW,306,20.0,22.0,75,0.00,,,0.00,Wunderground v.1.15,2013-02-27 15:06:00,
2013-02-27 10:12:00,51.3,44.0,29.80,WNW,299,21.0,22.0,76,0.00,,,0.00,Wunderground v.1.15,2013-02-27 15:12:00,
2013-02-27 10:18:00,51.3,43.6,29.80,NW,320,20.0,22.0,75,0.00,,,0.00,Wunderground v.1.15,2013-02-27 15:18:00,
2013-02-27 10:24:00,51.4,44.1,29.80,NW,319,18.0,20.0,76,0.00,,,0.00,Wunderground v.1.15,2013-02-27 15:24:00,
2013-02-27 10:30:00,51.4,43.7,29.79,NW,312,18.0,19.0,75,0.00,,,0.00,Wunderground v.1.15,2013-02-27 15:30:00,
2013-02-27 10:36:00,51.6,43.9,29.79,NW,312,17.0,19.0,75,0.00,,,0.00,Wunderground v.1.15,2013-02-27 15:36:00,
2013-02-27 10:42:00,51.7,44.0,29.79,NW,312,17.0,17.0,75,0.00,,,0.00,Wunderground v.1.15,2013-02-27 15:42:00,
2013-02-27 10:48:00,52.2,44.5,29.79,NW,309,18.0,20.0,75,0.00,,,0.00,Wunderground v.1.15,2013-02-27 15:48:00,
2013-02-27 10:54:00,52.6,43.5,29.79,WNW,298,16.0,17.0,71,0.00,,,0.00,Wunderground v.1.15,2013-02-27 15:54:00,
2013-02-27 11:00:00,53.1,44.3,29.78,NW,304,13.0,13.0,72,0.00,,,0.00,Wunderground v.1.15,2013-02-27 16:00:00,
2013-02-27 11:06:00,53.3,44.1,29.78,NW,320,12.0,14.0,71,0.00,,,0.00,Wunderground v.1.15,2013-02-27 16:06:00,
2013-02-27 11:12:00,53.5,44.7,29.78,NW,308,13.0,17.0,72,0.00,,,0.00,Wunderground v.1.15,2013-02-27 16:12:00,
2013-02-27 11:18:00,53.6,44.0,29.79,NW,305,15.0,20.0,70,0.00,,,0.00,Wunderground v.1.15,2013-02-27 16:18:00,
2013-02-27 11:24:00,54.1,45.3,29.79,NW,313,15.0,17.0,72,0.00,,,0.00,Wunderground v.1.15,2013-02-27 16:24:00,
2013-02-27 11:30:00,54.2,45.7,29.78,WNW,294,14.0,14.0,73,0.00,,,0.00,Wunderground v.1.15,2013-02-27 16:30:00,
2013-02-27 11:36:00,53.9,45.4,29.78,WNW,301,13.0,16.0,73,0.00,,,0.00,Wunderground v.1.15,2013-02-27 16:36:00,
2013-02-27 11:42:00,54.4,45.6,29.78,NW,319,13.0,16.0,72,0.00,,,0.00,Wunderground v.1.15,2013-02-27 16:42:00,
2013-02-27 11:48:00,54.4,45.6,29.78,NW,308,14.0,16.0,72,0.00,,,0.00,Wunderground v.1.15,2013-02-27 16:48:00,
2013-02-27 11:54:00,54.7,46.2,29.78,NW,319,13.0,14.0,73,0.00,,,0.00,Wunderground v.1.15,2013-02-27 16:54:00,
2013-02-27 12:00:00,54.8,45.9,29.77,WNW,299,11.0,12.0,72,0.00,,,0.00,Wunderground v.1.15,2013-02-27 17:00:00,
2013-02-27 12:06:00,55.1,45.1,29.77,NW,308,10.0,13.0,69,0.00,,,0.00,Wunderground v.1.15,2013-02-27 17:06:00,
2013-02-27 12:12:00,55.1,46.6,29.77,NW,311,11.0,13.0,73,0.00,,,0.00,Wunderground v.1.15,2013-02-27 17:12:00,
2013-02-27 12:18:00,55.4,46.2,29.77,NW,308,10.0,13.0,71,0.00,,,0.00,Wunderground v.1.15,2013-02-27 17:18:00,
2013-02-27 12:24:00,55.1,45.1,29.77,NW,322,9.0,13.0,69,0.00,,,0.00,Wunderground v.1.15,2013-02-27 17:24:00,
2013-02-27 12:30:00,55.9,45.5,29.76,SE,145,6.0,6.0,68,0.00,,,0.00,Wunderground v.1.15,2013-02-27 17:30:00,
2013-02-27 12:36:00,56.5,44.9,29.76,West,278,4.0,6.0,65,0.00,,,0.00,Wunderground v.1.15,2013-02-27 17:36:00,
2013-02-27 12:42:00,56.5,44.5,29.76,WSW,244,4.0,7.0,64,0.00,,,0.00,Wunderground v.1.15,2013-02-27 17:42:00,
2013-02-27 12:48:00,55.9,43.9,29.76,WSW,254,5.0,7.0,64,0.00,,,0.00,Wunderground v.1.15,2013-02-27 17:48:00,
2013-02-27 12:54:00,56.3,43.9,29.76,WSW,239,6.0,11.0,63,0.00,,,0.00,Wunderground v.1.15,2013-02-27 17:54:00,
2013-02-27 13:00:00,55.9,43.5,29.75,NW,304,6.0,7.0,63,0.00,,,0.00,Wunderground v.1.15,2013-02-27 18:00:00,
2013-02-27 13:06:00,56.5,44.9,29.75,WNW,301,6.0,16.0,65,0.00,,,0.00,Wunderground v.1.15,2013-02-27 18:06:00,
2013-02-27 13:12:00,56.2,43.8,29.75,West,267,9.0,11.0,63,0.00,,,0.00,Wunderground v.1.15,2013-02-27 18:12:00,
2013-02-27 13:18:00,56.2,45.8,29.75,WNW,295,10.0,14.0,68,0.00,,,0.00,Wunderground v.1.15,2013-02-27 18:18:00,
2013-02-27 13:24:00,56.3,46.3,29.75,NW,312,11.0,11.0,69,0.00,,,0.00,Wunderground v.1.15,2013-02-27 18:24:00,
2013-02-27 13:30:00,56.6,45.0,29.74,NW,309,7.0,7.0,65,0.00,,,0.00,Wunderground v.1.15,2013-02-27 18:30:00,
2013-02-27 13:36:00,57.0,44.9,29.74,WSW,240,5.0,8.0,64,0.00,,,0.00,Wunderground v.1.15,2013-02-27 18:36:00,
2013-02-27 13:42:00,57.2,44.3,29.74,WNW,298,6.0,11.0,62,0.00,,,0.00,Wunderground v.1.15,2013-02-27 18:42:00,
2013-02-27 13:48:00,56.9,44.8,29.74,SW,230,6.0,11.0,64,0.00,,,0.00,Wunderground v.1.15,2013-02-27 18:48:00,
2013-02-27 13:54:00,57.2,45.5,29.74,NW,309,6.0,11.0,65,0.00,,,0.00,Wunderground v.1.15,2013-02-27 18:54:00,
2013-02-27 14:00:00,57.2,45.1,29.74,WNW,301,8.0,8.0,64,0.00,,,0.00,Wunderground v.1.15,2013-02-27 19:00:00,
2013-02-27 14:06:00,57.0,44.5,29.74,WNW,288,8.0,10.0,63,0.00,,,0.00,Wunderground v.1.15,2013-02-27 19:06:00,
2013-02-27 14:12:00,57.6,46.3,29.74,NW,311,8.0,8.0,66,0.00,,,0.00,Wunderground v.1.15,2013-02-27 19:12:00,
2013-02-27 14:18:00,57.5,44.1,29.73,WSW,239,8.0,14.0,61,0.00,,,0.00,Wunderground v.1.15,2013-02-27 19:18:00,
2013-02-27 14:24:00,57.6,45.5,29.73,West,278,7.0,10.0,64,0.00,,,0.00,Wunderground v.1.15,2013-02-27 19:24:00,
2013-02-27 14:30:00,57.5,45.4,29.73,WNW,301,8.0,8.0,64,0.00,,,0.00,Wunderground v.1.15,2013-02-27 19:30:00,
2013-02-27 14:36:00,57.6,45.5,29.73,West,272,7.0,11.0,64,0.00,,,0.00,Wunderground v.1.15,2013-02-27 19:36:00,
2013-02-27 14:42:00,57.8,44.9,29.73,West,267,5.0,5.0,62,0.00,,,0.00,Wunderground v.1.15,2013-02-27 19:42:00,
2013-02-27 14:48:00,58.7,47.0,29.73,WNW,302,4.0,5.0,65,0.00,,,0.00,Wunderground v.1.15,2013-02-27 19:48:00,
2013-02-27 14:54:00,58.4,45.0,29.73,West,278,5.0,5.0,61,0.00,,,0.00,Wunderground v.1.15,2013-02-27 19:54:00,
2013-02-27 15:00:00,58.3,46.2,29.73,WSW,257,5.0,5.0,64,0.00,,,0.00,Wunderground v.1.15,2013-02-27 20:00:00,
2013-02-27 15:06:00,58.0,45.9,29.73,WSW,247,4.0,6.0,64,0.00,,,0.00,Wunderground v.1.15,2013-02-27 20:06:00,
2013-02-27 15:12:00,57.8,44.9,29.73,SW,229,4.0,4.0,62,0.00,,,0.00,Wunderground v.1.15,2013-02-27 20:12:00,
2013-02-27 15:18:00,57.6,45.1,29.73,SW,232,5.0,5.0,63,0.00,,,0.00,Wunderground v.1.15,2013-02-27 20:18:00,
2013-02-27 15:24:00,58.0,46.3,29.73,WNW,292,4.0,8.0,65,0.00,,,0.00,Wunderground v.1.15,2013-02-27 20:24:00,
2013-02-27 15:30:00,57.8,45.7,29.73,SW,220,4.0,4.0,64,0.00,,,0.00,Wunderground v.1.15,2013-02-27 20:30:00,
2013-02-27 15:36:00,57.5,45.4,29.73,WNW,294,5.0,8.0,64,0.00,,,0.00,Wunderground v.1.15,2013-02-27 20:36:00,
2013-02-27 15:42:00,57.2,47.5,29.73,SW,219,6.0,6.0,70,0.00,,,0.00,Wunderground v.1.15,2013-02-27 20:42:00,
2013-02-27 15:48:00,56.9,47.6,29.72,WSW,254,5.0,6.0,71,0.00,,,0.00,Wunderground v.1.15,2013-02-27 20:48:00,
2013-02-27 15:54:00,56.3,47.8,29.72,West,277,6.0,7.0,73,0.00,,,0.00,Wunderground v.1.15,2013-02-27 20:54:00,
2013-02-27 16:00:00,56.2,48.0,29.72,SSW,210,5.0,8.0,74,0.00,,,0.00,Wunderground v.1.15,2013-02-27 21:00:00,
2013-02-27 16:06:00,56.2,48.4,29.72,West,264,5.0,12.0,75,0.00,,,0.00,Wunderground v.1.15,2013-02-27 21:06:00,
2013-02-27 16:12:00,56.3,48.5,29.72,West,271,5.0,5.0,75,0.00,,,0.00,Wunderground v.1.15,2013-02-27 21:12:00,
2013-02-27 16:18:00,56.2,48.0,29.73,SW,236,4.0,6.0,74,0.00,,,0.00,Wunderground v.1.15,2013-02-27 21:18:00,
2013-02-27 16:24:00,56.2,48.4,29.73,SW,227,4.0,7.0,75,0.00,,,0.00,Wunderground v.1.15,2013-02-27 21:24:00,
2013-02-27 16:30:00,56.0,48.2,29.72,WSW,248,4.0,4.0,75,0.00,,,0.00,Wunderground v.1.15,2013-02-27 21:30:00,
2013-02-27 16:36:00,55.9,48.1,29.72,WNW,285,3.0,5.0,75,0.00,,,0.00,Wunderground v.1.15,2013-02-27 21:36:00,
2013-02-27 16:42:00,55.6,47.8,29.72,WSW,244,4.0,6.0,75,0.00,,,0.00,Wunderground v.1.15,2013-02-27 21:42:00,
2013-02-27 16:48:00,55.7,47.5,29.72,SSW,213,4.0,6.0,74,0.00,,,0.00,Wunderground v.1.15,2013-02-27 21:48:00,
2013-02-27 16:54:00,55.7,47.9,29.72,WSW,243,2.0,3.0,75,0.00,,,0.00,Wunderground v.1.15,2013-02-27 21:54:00,
2013-02-27 17:00:00,55.6,48.2,29.72,SSW,210,3.0,3.0,76,0.00,,,0.00,Wunderground v.1.15,2013-02-27 22:00:00,
2013-02-27 17:06:00,55.6,48.5,29.72,SW,224,4.0,7.0,77,0.00,,,0.00,Wunderground v.1.15,2013-02-27 22:06:00,
2013-02-27 17:12:00,55.6,48.5,29.72,WSW,256,4.0,4.0,77,0.00,,,0.00,Wunderground v.1.15,2013-02-27 22:12:00,
2013-02-27 17:18:00,55.6,48.2,29.72,WSW,243,3.0,4.0,76,0.00,,,0.00,Wunderground v.1.15,2013-02-27 22:18:00,
2013-02-27 17:24:00,55.4,47.6,29.72,WSW,247,3.0,5.0,75,0.00,,,0.00,Wunderground v.1.15,2013-02-27 22:24:00,
2013-02-27 17:30:00,55.3,47.5,29.72,WSW,240,3.0,4.0,75,0.00,,,0.00,Wunderground v.1.15,2013-02-27 22:30:00,
2013-02-27 17:36:00,55.1,47.3,29.72,WSW,250,4.0,10.0,75,0.00,,,0.00,Wunderground v.1.15,2013-02-27 22:36:00,
2013-02-27 17:42:00,55.1,47.3,29.72,WSW,239,4.0,4.0,75,0.00,,,0.00,Wunderground v.1.15,2013-02-27 22:42:00,
2013-02-27 17:48:00,55.0,47.6,29.73,WSW,253,3.0,7.0,76,0.00,,,0.00,Wunderground v.1.15,2013-02-27 22:48:00,
2013-02-27 17:54:00,54.8,47.7,29.73,West,268,3.0,4.0,77,0.00,,,0.00,Wunderground v.1.15,2013-02-27 22:54:00,
2013-02-27 18:00:00,54.7,47.6,29.73,SW,232,3.0,3.0,77,0.00,,,0.00,Wunderground v.1.15,2013-02-27 23:00:00,
2013-02-27 18:06:00,54.5,47.4,29.73,SW,229,2.0,6.0,77,0.00,,,0.00,Wunderground v.1.15,2013-02-27 23:06:00,
2013-02-27 18:12:00,54.4,47.3,29.73,WSW,254,3.0,6.0,77,0.00,,,0.00,Wunderground v.1.15,2013-02-27 23:12:00,
2013-02-27 18:18:00,54.2,47.1,29.73,WSW,244,5.0,6.0,77,0.00,,,0.00,Wunderground v.1.15,2013-02-27 23:18:00,
2013-02-27 18:24:00,54.1,47.0,29.73,WSW,250,4.0,6.0,77,0.00,,,0.00,Wunderground v.1.15,2013-02-27 23:24:00,
2013-02-27 18:30:00,53.9,46.9,29.74,WSW,251,4.0,5.0,77,0.00,,,0.00,Wunderground v.1.15,2013-02-27 23:30:00,
2013-02-27 18:36:00,53.8,46.8,29.74,WSW,246,3.0,7.0,77,0.00,,,0.00,Wunderground v.1.15,2013-02-27 23:36:00,
2013-02-27 18:42:00,53.8,46.8,29.74,SW,233,3.0,3.0,77,0.00,,,0.00,Wunderground v.1.15,2013-02-27 23:42:00,
2013-02-27 18:48:00,53.8,46.8,29.74,WSW,243,4.0,4.0,77,0.00,,,0.00,Wunderground v.1.15,2013-02-27 23:48:00,
2013-02-27 18:54:00,53.6,46.6,29.74,West,267,4.0,4.0,77,0.00,,,0.00,Wunderground v.1.15,2013-02-27 23:54:00,
2013-02-27 19:00:00,53.5,46.5,29.74,WSW,246,3.0,3.0,77,0.00,,,0.00,Wunderground v.1.15,2013-02-28 00:00:00,
2013-02-27 19:06:00,53.5,46.5,29.74,SW,232,3.0,5.0,77,0.00,,,0.00,Wunderground v.1.15,2013-02-28 00:06:00,
2013-02-27 19:12:00,53.5,46.5,29.74,WSW,253,3.0,6.0,77,0.00,,,0.00,Wunderground v.1.15,2013-02-28 00:12:00,
2013-02-27 19:18:00,53.3,46.3,29.74,West,267,3.0,6.0,77,0.00,,,0.00,Wunderground v.1.15,2013-02-28 00:18:00,
2013-02-27 19:24:00,53.3,46.3,29.74,West,263,3.0,6.0,77,0.00,,,0.00,Wunderground v.1.15,2013-02-28 00:24:00,
2013-02-27 19:30:00,53.3,46.3,29.74,West,272,4.0,7.0,77,0.00,,,0.00,Wunderground v.1.15,2013-02-28 00:30:00,
2013-02-27 19:36:00,53.3,46.3,29.74,West,271,5.0,8.0,77,0.00,,,0.00,Wunderground v.1.15,2013-02-28 00:36:00,
2013-02-27 19:42:00,53.2,46.2,29.74,West,268,5.0,9.0,77,0.00,,,0.00,Wunderground v.1.15,2013-02-28 00:42:00,
2013-02-27 19:48:00,53.2,46.2,29.74,WSW,250,4.0,9.0,77,0.00,,,0.00,Wunderground v.1.15,2013-02-28 00:48:00,
2013-02-27 19:54:00,52.9,45.9,29.74,WNW,288,5.0,10.0,77,0.00,,,0.00,Wunderground v.1.15,2013-02-28 00:54:00,
2013-02-27 20:00:00,52.9,45.9,29.74,West,272,5.0,7.0,77,0.00,,,0.00,Wunderground v.1.15,2013-02-28 01:00:00,
2013-02-27 20:06:00,52.8,45.8,29.74,WSW,239,4.0,8.0,77,0.00,,,0.00,Wunderground v.1.15,2013-02-28 01:06:00,
2013-02-27 20:12:00,52.6,45.9,29.74,SW,233,4.0,7.0,78,0.00,,,0.00,Wunderground v.1.15,2013-02-28 01:12:00,
2013-02-27 20:18:00,52.6,45.9,29.74,WSW,254,5.0,7.0,78,0.00,,,0.00,Wunderground v.1.15,2013-02-28 01:18:00,
2013-02-27 20:24:00,52.5,45.8,29.74,West,270,5.0,7.0,78,0.00,,,0.00,Wunderground v.1.15,2013-02-28 01:24:00,
2013-02-27 20:30:00,52.5,45.8,29.75,West,260,5.0,5.0,78,0.00,,,0.00,Wunderground v.1.15,2013-02-28 01:30:00,
2013-02-27 20:36:00,52.5,45.8,29.75,West,267,3.0,11.0,78,0.00,,,0.00,Wunderground v.1.15,2013-02-28 01:36:00,
2013-02-27 20:42:00,52.3,45.6,29.75,WSW,248,5.0,6.0,78,0.00,,,0.00,Wunderground v.1.15,2013-02-28 01:42:00,
2013-02-27 20:48:00,52.3,46.0,29.75,West,280,6.0,8.0,79,0.00,,,0.00,Wunderground v.1.15,2013-02-28 01:48:00,
2013-02-27 20:54:00,52.3,46.0,29.75,WNW,289,5.0,6.0,79,0.00,,,0.00,Wunderground v.1.15,2013-02-28 01:54:00,
2013-02-27 21:00:00,52.2,45.9,29.75,WNW,282,4.0,5.0,79,0.00,,,0.00,Wunderground v.1.15,2013-02-28 02:00:00,
2013-02-27 21:06:00,52.2,45.9,29.75,NW,319,6.0,11.0,79,0.00,,,0.00,Wunderground v.1.15,2013-02-28 02:06:00,
2013-02-27 21:12:00,52.2,45.9,29.75,WSW,258,5.0,5.0,79,0.00,,,0.00,Wunderground v.1.15,2013-02-28 02:12:00,
2013-02-27 21:18:00,52.3,45.6,29.75,NW,313,4.0,5.0,78,0.00,,,0.00,Wunderground v.1.15,2013-02-28 02:18:00,
2013-02-27 21:24:00,52.2,45.9,29.75,West,278,5.0,8.0,79,0.00,,,0.00,Wunderground v.1.15,2013-02-28 02:24:00,
2013-02-27 21:30:00,52.2,45.9,29.74,West,268,6.0,6.0,79,0.00,,,0.00,Wunderground v.1.15,2013-02-28 02:30:00,
2013-02-27 21:36:00,52.3,45.6,29.74,WNW,288,5.0,6.0,78,0.00,,,0.00,Wunderground v.1.15,2013-02-28 02:36:00,
2013-02-27 21:42:00,52.5,45.8,29.74,WSW,258,7.0,9.0,78,0.00,,,0.00,Wunderground v.1.15,2013-02-28 02:42:00,
2013-02-27 21:48:00,52.5,45.8,29.75,West,278,8.0,9.0,78,0.00,,,0.00,Wunderground v.1.15,2013-02-28 02:48:00,
2013-02-27 21:54:00,52.5,45.8,29.75,WNW,284,8.0,8.0,78,0.00,,,0.00,Wunderground v.1.15,2013-02-28 02:54:00,
2013-02-27 22:00:00,52.5,45.8,29.75,West,268,6.0,7.0,78,0.00,,,0.00,Wunderground v.1.15,2013-02-28 03:00:00,
2013-02-27 22:06:00,52.6,45.9,29.75,West,268,4.0,7.0,78,0.00,,,0.00,Wunderground v.1.15,2013-02-28 03:06:00,
2013-02-27 22:14:00,52.5,45.8,29.76,WNW,288,4.0,5.0,78,0.00,,,0.00,Wunderground v.1.15,2013-02-28 03:14:00,
2013-02-27 22:20:00,52.5,45.8,29.76,West,278,4.0,5.0,78,0.00,,,0.00,Wunderground v.1.15,2013-02-28 03:20:00,
2013-02-27 22:26:00,52.5,46.2,29.76,West,265,4.0,6.0,79,0.00,,,0.00,Wunderground v.1.15,2013-02-28 03:26:00,
2013-02-27 22:32:00,52.5,45.8,29.76,West,270,5.0,5.0,78,0.00,,,0.00,Wunderground v.1.15,2013-02-28 03:32:00,
2013-02-27 22:38:00,52.3,46.0,29.76,WNW,292,4.0,5.0,79,0.00,,,0.00,Wunderground v.1.15,2013-02-28 03:38:00,
2013-02-27 22:44:00,52.3,45.6,29.75,WNW,291,4.0,4.0,78,0.00,,,0.00,Wunderground v.1.15,2013-02-28 03:44:00,
2013-02-27 22:50:00,52.3,46.0,29.75,NW,312,4.0,7.0,79,0.00,,,0.00,Wunderground v.1.15,2013-02-28 03:50:00,
2013-02-27 22:56:00,52.3,46.0,29.75,West,272,5.0,7.0,79,0.00,,,0.00,Wunderground v.1.15,2013-02-28 03:56:00,
2013-02-27 23:02:00,52.3,45.6,29.75,WSW,254,4.0,6.0,78,0.00,,,0.00,Wunderground v.1.15,2013-02-28 04:02:00,
2013-02-27 23:08:00,52.2,45.5,29.75,West,270,3.0,6.0,78,0.00,,,0.00,Wunderground v.1.15,2013-02-28 04:08:00,
2013-02-27 23:14:00,52.2,45.9,29.75,WNW,287,3.0,6.0,79,0.00,,,0.00,Wunderground v.1.15,2013-02-28 04:14:00,
2013-02-27 23:20:00,52.2,45.9,29.75,West,270,3.0,3.0,79,0.00,,,0.00,Wunderground v.1.15,2013-02-28 04:20:00,
2013-02-27 23:26:00,52.2,45.9,29.75,West,270,3.0,4.0,79,0.00,,,0.00,Wunderground v.1.15,2013-02-28 04:26:00,
2013-02-27 23:32:00,52.2,45.9,29.75,WNW,298,4.0,4.0,79,0.00,,,0.00,Wunderground v.1.15,2013-02-28 04:32:00,
2013-02-27 23:38:00,52.0,46.0,29.75,West,264,3.0,4.0,80,0.00,,,0.00,Wunderground v.1.15,2013-02-28 04:38:00,
2013-02-27 23:44:00,51.9,45.9,29.75,WNW,282,3.0,3.0,80,0.00,,,0.00,Wunderground v.1.15,2013-02-28 04:44:00,
2013-02-27 23:50:00,51.7,45.7,29.75,West,261,3.0,7.0,80,0.00,,,0.00,Wunderground v.1.15,2013-02-28 04:50:00,
2013-02-27 23:56:00,51.7,45.7,29.75,West,267,3.0,7.0,80,0.00,,,0.00,Wunderground v.1.15,2013-02-28 04:56:00,